Weather reports worldwide

Advertisment
Almondsbury, United Kingdom (3930): temperature & dewpoint: 19.01.2020 16:00:00 - 25.01.2020 16:00:00 (GMT)Almondsbury, United Kingdom (3930): temperature -20cm & temperature -100cm: 19.01.2020 16:00:00 - 25.01.2020 16:00:00 (GMT)Almondsbury, United Kingdom (3930): wind speed: 19.01.2020 16:00:00 - 25.01.2020 16:00:00 (GMT)Almondsbury, United Kingdom (3930): wind direction: 19.01.2020 16:00:00 - 25.01.2020 16:00:00 (GMT)Almondsbury, United Kingdom (3930): reduced air pressure: 19.01.2020 16:00:00 - 25.01.2020 16:00:00 (GMT)Almondsbury, United Kingdom (3930): visibility: 19.01.2020 16:00:00 - 25.01.2020 16:00:00 (GMT)Almondsbury, United Kingdom (3930): sunshine duration: 19.01.2020 16:00:00 - 25.01.2020 16:00:00 (GMT)Almondsbury, United Kingdom (3930): precipitation: 19.01.2020 16:00:00 - 25.01.2020 16:00:00 (GMT)
Date & Time tt [°C] td [°C] tt -20cm [°C] tt -100cm [°C] ff [km/h] ff [kn] dd ppp [hPa] vv [km] sd [min] rr [mm]
25.01.2020 16:00:00 6,9 6,7 - - 9 5 ESE 1015,2 1,9 0 0,0
25.01.2020 15:00:00 6,5 6,2 - - 9 5 ESE 1015,6 2,8 0 0,0
25.01.2020 14:00:00 6,3 5,7 - - 11 6 E 1016,3 3,2 0 0,0
25.01.2020 13:00:00 6,3 5,4 - - 11 6 SE 1017,3 3,5 0 0,0
25.01.2020 12:00:00 6,6 5,0 - - 9 5 SE 1018,0 8 0 0,0
25.01.2020 11:00:00 6,3 4,5 - - 8 4 SE 1018,4 8 0 0,0
25.01.2020 10:00:00 6,0 4,2 - - 8 4 SE 1018,6 8 0 0,0
25.01.2020 09:00:00 5,6 3,9 6,0 7,7 5 3 SE 1018,8 7 0 0,0
25.01.2020 08:00:00 5,5 4,0 - - 8 4 SE 1018,8 9 0 0,0
25.01.2020 07:00:00 5,5 3,9 - - 5 3 SE 1018,9 12 0 0,0
25.01.2020 06:00:00 5,5 4,0 - - 5 3 SE 1019,0 11 0 0,0
25.01.2020 05:00:00 5,5 4,2 - - 4 2 SSE 1019,2 6 0 0,0
25.01.2020 04:00:00 5,5 4,1 - - 4 2 SSE 1019,5 6 0 0,0
25.01.2020 03:00:00 5,6 4,3 - - 5 3 S 1020,0 5 0 0,0
25.01.2020 02:00:00 5,6 4,3 - - 5 3 S 1020,3 5 0 0,0
25.01.2020 01:00:00 5,5 4,3 - - 8 4 S 1020,8 6 0 0,0
25.01.2020 00:00:00 5,4 3,8 - - 4 2 SW 1021,4 15 - 0,0
24.01.2020 23:00:00 5,3 4,0 - - 5 3 W 1021,4 13 0 0,0
24.01.2020 22:00:00 5,5 4,1 - - 5 3 WSW 1021,8 11 0 0,0
24.01.2020 21:00:00 5,3 4,2 - - 5 3 WSW 1022,2 11 0 0,0
24.01.2020 20:00:00 5,5 4,6 - - 5 3 W 1022,2 12 0 0,0
24.01.2020 19:00:00 5,8 4,6 - - 5 3 WNW 1022,2 17 0 0,0
24.01.2020 18:00:00 5,8 4,8 - - 8 4 W 1022,0 19 0 0,0
24.01.2020 17:00:00 6,0 5,0 - - 11 6 WSW 1022,0 22 0 0,0
24.01.2020 16:00:00 6,2 5,1 - - 8 4 W 1022,4 26 0 0,0
24.01.2020 15:00:00 6,4 5,2 - - 8 4 WSW 1022,4 24 0 0,0
24.01.2020 14:00:00 6,4 5,3 - - 5 3 W 1022,9 19 0 0,0
24.01.2020 13:00:00 6,4 5,5 - - 9 5 W 1023,5 17 0 0,0
24.01.2020 12:00:00 6,7 5,3 - - 4 2 NW 1024,1 24 0 0,0
24.01.2020 11:00:00 5,9 5,0 - - 4 2 SW 1024,4 9 0 0,0
24.01.2020 10:00:00 5,1 4,7 - - 4 2 SW 1024,7 19 - 0,0
24.01.2020 09:00:00 4,9 4,6 5,7 7,9 4 2 WNW 1024,6 16 - 0,0
24.01.2020 08:00:00 4,7 4,4 - - 2 1 NW 1024,3 14 - 0,0
24.01.2020 07:00:00 4,7 4,4 - - 5 3 NNW 1024,3 14 - 0,0
24.01.2020 06:00:00 4,7 4,6 - - 8 4 N 1024,3 12 - 0,0
24.01.2020 05:00:00 4,9 4,8 - - 5 3 NNW 1024,5 1,1 - 0,0
24.01.2020 04:00:00 4,9 4,8 - - 8 4 N 1024,7 4,9 - 0,0
24.01.2020 03:00:00 5,2 5,1 - - 5 3 NNW 1025,4 0,6 - 0,0
24.01.2020 02:00:00 5,4 5,2 - - 4 2 N 1026,1 3,0 - 0,0
24.01.2020 01:00:00 5,5 5,2 - - 2 1 N 1026,5 1,3 - 0,0
24.01.2020 00:00:00 5,5 5,2 - - 4 2 ENE 1026,9 3,3 - 0,2
23.01.2020 23:00:00 5,5 5,1 - - 4 2 NE 1027,2 3,3 - 0,0
23.01.2020 22:00:00 5,5 5,0 - - 9 5 N 1027,4 8 - 0,0
23.01.2020 21:00:00 5,7 5,2 - - 9 5 N 1027,7 8 - 0,0
23.01.2020 20:00:00 5,9 5,6 - - 5 3 NNW 1027,8 2,4 60 0,0
23.01.2020 19:00:00 5,9 5,5 - - 2 1 NE 1028,3 0,8 60 0,0
23.01.2020 18:00:00 6,1 5,3 - - 4 2 E 1028,7 3,1 12 0,0
23.01.2020 17:00:00 6,2 5,1 - - 4 2 SE 1028,9 6 0 0,0
23.01.2020 16:00:00 6,3 5,2 - - 5 3 ESE 1029,2 5 - 0,0
23.01.2020 15:00:00 6,4 5,4 - - 4 2 E 1029,9 5 - 0,0
23.01.2020 14:00:00 6,5 5,3 - - 8 4 E 1030,5 6 - 0,0
23.01.2020 13:00:00 6,6 5,4 - - 5 3 E 1031,5 5 - 0,0
23.01.2020 12:00:00 6,7 5,5 - - 8 4 E 1032,4 9 - 0,0
23.01.2020 11:00:00 6,5 5,3 - - 11 6 E 1032,8 - 0 0,0
23.01.2020 10:00:00 6,3 5,5 - - 8 4 E 1033,2 - 0 0,0
23.01.2020 09:00:00 6,0 5,5 5,0 8,0 8 4 E 1033,5 - 0 0,0
23.01.2020 08:00:00 6,1 5,2 - - 8 4 E 1033,6 - 0 0,0
23.01.2020 07:00:00 6,0 5,3 - - 8 4 ENE 1033,7 - 0 0,0
23.01.2020 06:00:00 6,1 5,5 - - 8 4 ENE 1033,8 - 0 0,0
23.01.2020 05:00:00 6,2 5,7 - - 9 5 E 1034,2 - 0 0,0
23.01.2020 04:00:00 6,3 5,9 - - 8 4 E 1034,5 - 0 0,0
23.01.2020 03:00:00 6,6 6,2 - - 9 5 NE 1034,9 - 0 0,0
23.01.2020 02:00:00 6,7 6,2 - - 8 4 NE 1035,2 - 0 0,0
23.01.2020 01:00:00 6,8 6,4 - - 9 5 ENE 1035,8 - 0 0,0
23.01.2020 00:00:00 6,9 6,5 - - 9 5 ENE 1036,4 - - 0,0
22.01.2020 23:00:00 7,1 6,3 - - 11 6 ENE 1036,5 - 0 0,0
22.01.2020 22:00:00 7,2 6,8 - - 9 5 ENE 1036,4 - 0 0,0
22.01.2020 21:00:00 7,4 7,2 - - 5 3 NE 1036,5 - 0 0,2
22.01.2020 20:00:00 7,6 7,2 - - 5 3 ENE 1037,0 - 0 0,0
22.01.2020 19:00:00 7,7 7,1 - - 5 3 NE 1036,9 - 0 0,0
22.01.2020 18:00:00 7,7 7,1 - - 8 4 NE 1036,8 - 0 0,0
22.01.2020 17:00:00 7,7 7,2 - - 8 4 N 1036,8 - 0 0,0
22.01.2020 16:00:00 7,8 7,2 - - 9 5 N 1036,8 - 0 0,0
22.01.2020 15:00:00 7,9 7,5 - - 11 6 N 1037,0 - 0 0,0
22.01.2020 14:00:00 8,0 7,9 - - 8 4 NNE 1037,2 - 0 0,0
22.01.2020 13:00:00 7,5 7,4 - - 9 5 NNE 1038,0 - 0 0,0
22.01.2020 12:00:00 7,0 7,0 - - 8 4 NNE 1038,4 - 0 0,0
22.01.2020 11:00:00 6,4 6,4 - - 9 5 NE 1038,5 - 0 0,2
22.01.2020 10:00:00 5,8 5,8 - - 5 3 NNW 1038,4 - 0 0,0
22.01.2020 09:00:00 4,9 4,8 4,0 8,2 2 1 NNE 1038,4 - 0 0,0
22.01.2020 08:00:00 4,3 4,3 - - 4 2 E 1038,2 - 0 0,0
22.01.2020 07:00:00 5,0 5,0 - - 2 1 NW 1037,9 - 0 0,0
22.01.2020 06:00:00 5,0 5,0 - - 4 2 W 1038,0 - 0 0,0
22.01.2020 05:00:00 4,9 4,9 - - 5 3 W 1038,5 - 0 0,0
22.01.2020 04:00:00 4,7 4,7 - - 5 3 W 1038,7 - 0 0,0
22.01.2020 03:00:00 2,9 2,7 - - 4 2 SSW 1039,3 - 0 0,2
22.01.2020 02:00:00 2,9 2,7 - - 4 2 SSW 1039,7 - 0 0,0
22.01.2020 01:00:00 4,2 4,1 - - 5 3 W 1040,0 - 0 0,0
22.01.2020 00:00:00 3,9 3,8 - - 8 4 W 1040,7 - - 0,0
21.01.2020 23:00:00 3,2 3,1 - - 5 3 W 1040,8 - 0 0,0
21.01.2020 22:00:00 0,3 0,1 - - 2 1 S 1040,8 - 0 0,0
21.01.2020 21:00:00 0,8 0,7 - - 2 1 S 1040,7 - 0 0,0
21.01.2020 20:00:00 0,6 0,4 - - 5 3 W 1041,0 - 0 0,0
21.01.2020 19:00:00 1,6 1,3 - - 8 4 WSW 1041,0 - 0 0,0
21.01.2020 18:00:00 0,2 -0,6 - - 4 2 W 1041,0 - 0 0,0
21.01.2020 17:00:00 1,4 -0,2 - - 4 2 W 1041,1 - 12 0,0
21.01.2020 16:00:00 5,1 2,0 - - 8 4 W 1041,2 - 60 0,0
21.01.2020 15:00:00 6,5 2,6 - - 5 3 W 1041,3 - 60 0,0
21.01.2020 14:00:00 6,5 2,9 - - 5 3 WNW 1041,7 - 60 0,0
21.01.2020 13:00:00 6,9 3,1 - - 4 2 SW 1042,3 - 60 0,0
21.01.2020 12:00:00 4,0 2,9 - - 2 1 W 1043,0 - 60 0,2
21.01.2020 11:00:00 1,9 1,8 - - 5 3 NW 1043,6 - 54 0,0
21.01.2020 10:00:00 -1,6 -1,9 - - 4 2 SE 1044,2 - 6 0,0
21.01.2020 09:00:00 -2,8 -3,2 4,4 8,4 2 1 SSE 1043,9 - 0 0,0
21.01.2020 08:00:00 -4,3 -5,0 - - 2 1 SE 1043,8 - 0 0,0
21.01.2020 07:00:00 -4,0 -4,5 - - 2 1 ENE 1043,7 - 0 0,0
21.01.2020 06:00:00 -3,7 -4,2 - - 2 1 ESE 1043,4 - 0 0,0
21.01.2020 05:00:00 -3,9 -4,4 - - 2 1 ENE 1043,6 - 0 0,0
21.01.2020 04:00:00 -4,0 -4,5 - - 0 0 N 1043,7 - 0 0,0
21.01.2020 03:00:00 -3,0 -3,4 - - 4 2 ENE 1043,9 - 0 0,0
21.01.2020 02:00:00 -2,8 -3,2 - - 2 1 SSW 1044,3 - 0 0,0
21.01.2020 01:00:00 -3,3 -3,8 - - 0 0 N 1044,8 - 0 0,0
21.01.2020 00:00:00 -2,5 -3,0 - - 2 1 ENE 1045,5 - - 0,0
20.01.2020 23:00:00 -0,8 -1,3 - - 2 1 E 1045,7 - 0 0,0
20.01.2020 22:00:00 0,2 -0,4 - - 4 2 W 1045,6 - 0 0,0
20.01.2020 21:00:00 -0,1 -0,3 - - 2 1 W 1046,0 - 0 0,0
20.01.2020 20:00:00 0,1 -0,4 - - 4 2 WSW 1046,3 - 0 0,0
20.01.2020 19:00:00 3,1 2,9 - - 8 4 W 1046,4 - 0 0,0
20.01.2020 18:00:00 1,0 -0,3 - - 4 2 S 1046,8 - 0 0,0
20.01.2020 17:00:00 3,0 1,0 - - 4 2 SSW 1046,8 - 6 0,0
20.01.2020 16:00:00 6,0 2,8 - - 5 3 WSW 1046,7 - 60 0,0
20.01.2020 15:00:00 6,5 3,6 - - 9 5 SW 1047,1 - 60 0,0
20.01.2020 14:00:00 5,8 3,7 - - 9 5 W 1047,5 - 60 0,0
20.01.2020 13:00:00 5,4 3,2 - - 11 6 W 1048,1 - 60 0,0
20.01.2020 12:00:00 5,1 2,8 - - 9 5 WSW 1049,0 - 54 0,0
20.01.2020 11:00:00 3,0 2,1 - - 4 2 NE 1049,8 - 54 0,0
20.01.2020 10:00:00 2,4 2,3 - - 2 1 WNW 1049,7 - 48 0,0
20.01.2020 09:00:00 0,3 0,1 4,9 8,5 2 1 SSE 1049,7 - 0 0,0
20.01.2020 08:00:00 0,0 -0,2 - - 2 1 SSW 1049,4 - 0 0,0
20.01.2020 07:00:00 -2,9 -3,5 - - 4 2 SSW 1049,3 - 0 0,0
20.01.2020 06:00:00 -1,9 -2,3 - - 2 1 SE 1049,4 - 0 0,0
20.01.2020 05:00:00 -2,5 -2,9 - - 2 1 SW 1049,0 - 0 0,0
20.01.2020 04:00:00 -2,7 -3,3 - - 2 1 SSW 1049,2 - 0 0,0
20.01.2020 03:00:00 -1,9 -2,5 - - 2 1 S 1049,4 - 0 0,0
20.01.2020 02:00:00 -1,0 -1,5 - - 4 2 SSE 1049,9 - 0 0,0
20.01.2020 01:00:00 0,4 0,1 - - 4 2 W 1049,7 - 0 0,0
20.01.2020 00:00:00 1,5 1,3 - - 4 2 SW 1049,7 - - 0,0
19.01.2020 23:00:00 -1,5 -2,1 - - 4 2 SW 1049,7 - 0 0,0
19.01.2020 22:00:00 -0,4 -0,8 - - 2 1 SSE 1049,5 - 0 0,0
19.01.2020 21:00:00 -1,5 -2,1 - - 4 2 SSW 1049,5 - 0 0,0
19.01.2020 20:00:00 -1,6 -2,2 - - 4 2 W 1049,4 - 0 0,0
19.01.2020 19:00:00 -0,8 -1,3 - - 2 1 S 1049,1 - 0 0,0
19.01.2020 18:00:00 -0,4 -1,3 - - 2 1 W 1048,9 - 0 0,0
19.01.2020 17:00:00 1,4 -0,7 - - 4 2 W 1048,2 - 18 0,0
19.01.2020 16:00:00 7,0 1,8 - - 2 1 WSW 1047,7 - 60 0,0

tt = temperature
td = dewpoint
tt -20cm = temperature -20cm
tt -100cm = temperature -100cm
ff = wind speed
dd = wind direction
ppp = reduced air pressure
vv = visibility
sd = sunshine duration
rr = precipitation

Next stations